• Currently

    Reported at Minneapolis, Minneapolis-St. Paul International Airport, MN
    3:53 AM CST SUN MAR 26 2017
  • 37°F3°C
  • Drizzle
    Drizzle
  • Feels Like:33°F0°CDew Point:34°F1°CHumidity:87% Winds:E 7 mph 11 kph
    Pressure:29.94 in1014 hPaVisibility:7.00 miles11263.00 meters
Time Weather Temp Dew Point
Humidity Winds Visibility Pressure Precipitation
1 hr 24 hr
Tuesday, March 21
23:53 23:53 Clear Clear 42°F6°C 17°F-8°C 36% NW 9 mphNW 15 kph 10.0 miles16.1 km 30.21 in1023 hPa 0.00 in0.00 mm --
22:53 22:53 Mostly Clear Mostly Clear 42°F6°C 17°F-8°C 36% NW 8 mphNW 13 kph 10.0 miles16.1 km 30.21 in1023 hPa 0.00 in0.00 mm --
21:53 21:53 Clear Clear 42°F6°C 18°F-8°C 38% WNW 5 mphWNW 7 kph 10.0 miles16.1 km 30.21 in1023 hPa 0.00 in0.00 mm --
20:53 20:53 Clear Clear 45°F7°C 17°F-8°C 33% WNW 5 mphWNW 7 kph 10.0 miles16.1 km 30.18 in1022 hPa 0.00 in0.00 mm --
19:53 19:53 Mostly Clear Mostly Clear 47°F8°C 18°F-8°C 31% WNW 8 mphWNW 13 kph 10.0 miles16.1 km 30.18 in1022 hPa 0.00 in0.00 mm --
18:53 18:53 Partly Cloudy Partly Cloudy 52°F11°C 17°F-8°C 25% NW 8 mphNW 13 kph 10.0 miles16.1 km 30.15 in1021 hPa 0.00 in0.00 mm --
17:53 17:53 Mostly Cloudy Mostly Cloudy 54°F12°C 15°F-9°C 21% NNW 9 mphNNW 15 kph 10.0 miles16.1 km 30.12 in1020 hPa 0.00 in0.00 mm --
16:53 16:53 Partly Cloudy Partly Cloudy 54°F12°C 20°F-7°C 26% N 8 mphN 13 kph 10.0 miles16.1 km 30.15 in1021 hPa 0.00 in0.00 mm --
15:53 15:53 Partly Cloudy Partly Cloudy 54°F12°C 21°F-6°C 28% NNE 6 mphNNE 9 kph 10.0 miles16.1 km 30.15 in1021 hPa 0.00 in0.00 mm --
14:53 14:53 Mostly Cloudy Mostly Cloudy 52°F11°C 27°F-3°C 38% NNW 10 mphNNW 17 kph 10.0 miles16.1 km 30.15 in1021 hPa 0.00 in0.00 mm --
13:53 13:53 Cloudy Cloudy 50°F10°C 28°F-2°C 43% NNE 9 mphNNE 15 kph 10.0 miles16.1 km 30.18 in1022 hPa 0.00 in0.00 mm --
12:53 12:53 Cloudy Cloudy 48°F9°C 30°F-1°C 50% N 9 mphN 15 kph 10.0 miles16.1 km 30.18 in1022 hPa 0.00 in0.00 mm --
11:53 11:53 Cloudy Cloudy 48°F9°C 31°F-1°C 52% NNE 7 mphNNE 11 kph 10.0 miles16.1 km 30.15 in1021 hPa 0.00 in0.00 mm --
10:53 10:53 Cloudy Cloudy 47°F8°C 31°F-1°C 54% NE 8 mphNE 13 kph 10.0 miles16.1 km 30.15 in1021 hPa 0.00 in0.00 mm --
09:53 09:53 Mostly Cloudy Mostly Cloudy 45°F7°C 31°F-1°C 58% NNE 12 mphNNE 19 kph 10.0 miles16.1 km 30.12 in1020 hPa 0.00 in0.00 mm --
08:53 08:53 Mostly Cloudy Mostly Cloudy 44°F7°C 32°F0°C 63% N 9 mphN 15 kph 10.0 miles16.1 km 30.12 in1020 hPa 0.00 in0.00 mm --
07:53 07:53 Mostly Cloudy Mostly Cloudy 43°F6°C 33°F1°C 68% N 12 mphN 19 kph 10.0 miles16.1 km 30.06 in1018 hPa 0.00 in0.00 mm --
06:53 06:53 Cloudy Cloudy 44°F7°C 34°F1°C 68% N 14 mphN 22 kph 10.0 miles16.1 km 30.03 in1017 hPa 0.00 in0.00 mm --
05:53 05:53 Cloudy Cloudy 43°F6°C 35°F2°C 74% N 13 mphN 20 kph 10.0 miles16.1 km 30 in1016 hPa 0.00 in0.00 mm --
04:53 04:53 Partly Cloudy Partly Cloudy 43°F6°C 35°F2°C 74% N 12 mphN 19 kph 10.0 miles16.1 km 29.97 in1015 hPa 0.00 in0.00 mm --
03:53 03:53 Clear Clear 38°F3°C 34°F1°C 86% N 6 mphN 9 kph 10.0 miles16.1 km 29.97 in1015 hPa 0.00 in0.00 mm --
02:53 02:53 Mostly Cloudy Mostly Cloudy 37°F3°C 32°F0°C 82% NNW 3 mphNNW 6 kph 9.0 miles14.5 km 29.97 in1015 hPa 0.00 in0.00 mm --
01:53 01:53 Mostly Cloudy Mostly Cloudy 38°F3°C 33°F1°C 83% NNW 3 mphNNW 6 kph 10.0 miles16.1 km 29.97 in1015 hPa 0.00 in0.00 mm --
00:53 00:53 Mostly Clear Mostly Clear 42°F6°C 34°F1°C 73% CalmCalm 10.0 miles16.1 km 29.94 in1014 hPa 0.00 in0.00 mm --